This is the latest recevied weather packets stored in our database for station/object lu6fg. If no packets are shown the sender has not sent any weather packets the latest 10 day(s).
| Time | Temp. | Humidity | Pressure | Rain* | Wind** | Luminosity | Snow |
|---|---|---|---|---|---|---|---|
| 1777595645 | 18.89° C | 79% | 1010.9 hPa | 0 mm | - | - | - |
| 1777595584 | 18.89° C | 78% | 1010.9 hPa | 0 mm | - | - | - |
| 1777594765 | 18.89° C | 78% | 1010.7 hPa | 0 mm | - | - | - |
| 1777594624 | 18.89° C | 79% | 1010.8 hPa | 0 mm | - | - | - |
| 1777593484 | 19.44° C | 76% | 1010.6 hPa | 0 mm | - | - | - |
| 1777593266 | 19.44° C | 76% | 1010.7 hPa | 0 mm | - | - | - |
| 1777593065 | 19.44° C | 76% | 1010.7 hPa | 0 mm | - | - | - |
| 1777593005 | 19.44° C | 76% | 1010.6 hPa | 0 mm | - | - | - |
| 1777592465 | 19.44° C | 75% | 1010.4 hPa | 0 mm | - | - | - |
| 1777591925 | 19.44° C | 77% | 1010.3 hPa | 0 mm | - | - | - |
| 1777591505 | 18.89° C | 80% | 1010.3 hPa | 0 mm | - | - | - |
| 1777591445 | 18.89° C | 80% | 1010.2 hPa | 0 mm | - | - | - |
| 1777591145 | 19.44° C | 81% | 1010.3 hPa | 0 mm | - | - | - |
| 1777590965 | 19.44° C | 81% | 1010.5 hPa | 0 mm | - | - | - |
| 1777590905 | 19.44° C | 81% | 1010.2 hPa | 0 mm | - | - | - |
| 1777590724 | 19.44° C | 81% | 1010.3 hPa | 0 mm | - | - | - |
| 1777590544 | 19.44° C | 81% | 1010.3 hPa | 0 mm | - | - | - |
| 1777590125 | 19.44° C | 81% | 1010.2 hPa | 0 mm | - | - | - |
| 1777589704 | 19.44° C | 81% | 1010.1 hPa | 0 mm | - | - | - |
| 1777589585 | 19.44° C | 81% | 1010.2 hPa | 0 mm | - | - | - |
| 1777589426 | 19.44° C | 81% | 1010.2 hPa | 0 mm | - | - | - |
| 1777588864 | 19.44° C | 80% | 1010.1 hPa | 0 mm | - | - | - |
| 1777588565 | 20° C | 80% | 1010.1 hPa | 0 mm | - | - | - |
| 1777588085 | 20° C | 79% | 1010 hPa | 0 mm | - | - | - |
| 1777587965 | 20° C | 79% | 1010.2 hPa | 0 mm | - | - | - |
* Rain latest hour (hover to see other rain measurements)
** Current wind speed in m/s (hover to see current wind gust speed)